GW2818 Weather Reports


time (UTC)temp
C
wind
direction
speed
KPH
gust
KPH
rain 1hr
cm
rain 24hr
cm
rain mn
cm
humidity
%
barometer
mb
20260508023046 7 0 0.0 0.0 0.00 0.00 0.00 69 1013.9
20260508021539 8 0 0.0 0.0 0.00 0.00 0.00 67 1013.8
20260508020038 8 0 0.0 0.0 0.00 0.00 0.00 65 1013.7
20260508014539 8 0 0.0 0.0 0.00 0.00 0.00 63 1013.5
20260508013037 9 0 0.0 0.0 0.00 0.00 0.00 60 1013.3
20260508011544 10 0 0.0 0.0 0.00 0.00 0.00 56 1013.1
20260508010042 10 0 0.0 3.2 0.00 0.00 0.00 54 1012.7
20260508004540 10 0 0.0 3.2 0.00 0.00 0.00 53 1012.6
20260508003036 11 167 0.0 4.8 0.00 0.00 0.00 54 1012.3
20260508001537 11 91 0.0 9.7 0.00 0.00 0.00 50 1012.0
20260508000042 12 262 0.0 8.0 0.00 0.00 0.00 50 1011.7
20260507234540 12 68 1.6 11.3 0.00 0.00 0.00 49 1011.7
20260507233040 12 0 0.0 3.2 0.00 0.00 0.00 52 1011.5
20260507231544 12 124 1.6 12.9 0.00 0.00 0.00 50 1011.3
20260507230041 13 0 0.0 8.0 0.00 0.00 0.00 49 1011.1
20260507224554 13 29 1.6 11.3 0.00 0.00 0.00 47 1011.1
20260507223044 13 0 1.6 11.3 0.00 0.00 0.00 45 1010.9
20260507221540 14 94 0.0 4.8 0.00 0.00 0.00 46 1010.8
20260507220042 15 160 0.0 6.4 0.00 0.00 0.00 44 1010.6
20260507214541 15 266 0.0 9.7 0.00 0.00 0.00 45 1010.4
20260507213047 16 56 1.6 8.0 0.00 0.00 0.00 42 1010.2
20260507211539 16 247 1.6 8.0 0.00 0.00 0.00 41 1010.4
20260507210106 15 0 0.0 6.4 0.00 0.00 0.00 44 1010.2
20260507204537 15 125 0.0 8.0 0.00 0.00 0.00 43 1010.2
20260507203035 16 233 1.6 6.4 0.00 0.00 0.00 41 1010.1
20260507201539 16 0 0.0 8.0 0.00 0.00 0.00 43 1010.2
20260507200052 16 70 1.6 11.3 0.00 0.00 0.00 40 1010.4
20260507194537 17 0 1.6 11.3 0.00 0.00 0.00 41 1010.6
20260507193102 17 253 0.0 8.0 0.00 0.00 0.00 44 1010.6
20260507191550 16 0 1.6 11.3 0.00 0.00 0.00 46 1010.7
20260507190041 15 86 0.0 8.0 0.00 0.00 0.00 46 1010.8
20260507184539 16 229 0.0 9.7 0.00 0.00 0.00 43 1010.8
20260507183040 16 0 0.0 6.4 0.00 0.00 0.00 47 1010.9
20260507181538 16 0 0.0 8.0 0.00 0.00 0.00 49 1010.8
20260507180033 17 0 0.0 12.9 0.00 0.00 0.00 47 1011.0
20260507174541 18 281 1.6 6.4 0.00 0.00 0.00 46 1011.1
20260507173045 18 123 0.0 9.7 0.00 0.00 0.00 49 1011.2
20260507171539 17 85 0.0 11.3 0.00 0.00 0.00 50 1011.4
20260507170040 16 0 0.0 14.5 0.00 0.00 0.00 52 1011.7
20260507164538 16 143 1.6 9.7 0.00 0.00 0.00 50 1011.8
20260507163041 15 58 0.0 4.8 0.00 0.00 0.00 53 1011.9
20260507161544 15 37 0.0 6.4 0.00 0.00 0.00 54 1011.9
20260507160059 14 71 0.0 4.8 0.00 0.00 0.00 51 1012.3
20260507154538 13 0 0.0 11.3 0.00 0.00 0.00 58 1012.4
20260507153038 13 254 0.0 9.7 0.00 0.00 0.00 56 1012.5
20260507151536 13 44 0.0 6.4 0.00 0.00 0.00 55 1012.7
20260507150043 13 4 0.0 9.7 0.00 0.00 0.00 55 1012.9
20260507144549 13 0 0.0 4.8 0.00 0.00 0.00 59 1013.2
20260507143038 13 15 0.0 4.8 0.00 0.00 0.00 64 1013.4
20260507141540 12 54 1.6 8.0 0.00 0.00 0.00 61 1013.4
20260507140037 12 250 0.0 3.2 0.00 0.00 0.00 65 1013.6
20260507134549 11 0 0.0 4.8 0.00 0.03 0.00 67 1013.8
20260507133043 11 0 0.0 4.8 0.00 0.03 0.00 70 1013.8
20260507131539 10 0 0.0 4.8 0.00 0.03 0.00 71 1013.9
20260507130042 9 0 0.0 3.2 0.00 0.03 0.00 76 1013.9
20260507124538 8 0 0.0 3.2 0.00 0.05 0.00 81 1013.9
20260507123046 6 0 0.0 4.8 0.00 0.05 0.00 94 1013.8
20260507121540 5 0 0.0 0.0 0.00 0.05 0.00 95 1014.0
20260507120040 3 0 0.0 0.0 0.00 0.05 0.00 94 1013.9
20260507114543 2 0 0.0 0.0 0.00 0.23 0.00 94 1013.9
20260507113039 2 0 0.0 0.0 0.00 0.23 0.00 94 1013.8
20260507111548 2 0 0.0 0.0 0.00 0.23 0.00 94 1013.7
20260507110036 1 0 0.0 0.0 0.00 0.23 0.00 93 1013.7
20260507104536 1 0 0.0 0.0 0.00 0.53 0.00 93 1013.6
20260507103041 1 0 0.0 0.0 0.00 0.53 0.00 93 1013.4
20260507101538 2 0 0.0 0.0 0.00 0.53 0.00 93 1013.3
20260507100037 2 0 0.0 0.0 0.00 0.53 0.00 93 1013.2
20260507094544 2 0 0.0 0.0 0.00 0.84 0.00 92 1013.2
20260507093045 2 0 0.0 0.0 0.00 0.84 0.00 92 1013.2
20260507091541 2 0 0.0 0.0 0.00 0.84 0.00 92 1013.4
20260507090039 2 0 0.0 0.0 0.00 0.84 0.00 91 1013.3
20260507084541 3 0 0.0 0.0 0.00 1.09 0.00 91 1013.2
20260507083039 3 0 0.0 0.0 0.00 1.09 0.00 90 1013.3
20260507081538 3 0 0.0 0.0 0.00 1.09 0.00 90 1013.2
20260507080040 3 0 0.0 0.0 0.00 1.09 0.00 89 1013.3
20260507074540 4 0 0.0 0.0 0.00 1.09 0.00 88 1013.4
20260507073036 5 0 0.0 0.0 0.00 1.09 0.00 87 1013.4
20260507071536 5 0 0.0 0.0 0.00 1.09 0.00 87 1013.4
20260507070048 5 0 0.0 0.0 0.00 1.09 0.00 85 1013.6
20260507064546 5 0 0.0 0.0 0.00 1.19 0.00 83 1013.6
20260507063038 6 0 0.0 0.0 0.00 1.19 0.00 81 1013.6
20260507061538 6 0 0.0 0.0 0.00 1.19 0.00 80 1013.6
20260507060037 7 0 0.0 0.0 0.00 1.19 0.00 78 1013.6
20260507054540 7 0 0.0 0.0 0.00 1.30 0.00 75 1013.8
20260507053041 7 0 0.0 0.0 0.00 1.30 0.00 75 1014.1
20260507051541 7 0 0.0 0.0 0.00 1.30 0.00 74 1014.4
20260507050041 8 0 0.0 0.0 0.00 1.30 0.00 73 1014.5
20260507044538 8 0 0.0 0.0 0.00 1.32 0.00 73 1014.3
20260507043035 8 0 0.0 0.0 0.00 1.32 0.00 73 1014.3
20260507041552 8 0 0.0 0.0 0.00 1.32 0.00 75 1014.3
20260507040041 8 0 0.0 0.0 0.00 1.32 0.00 75 1014.3
20260507034538 8 0 0.0 0.0 0.00 1.32 1.32 73 1014.2
20260507033042 8 0 0.0 0.0 0.00 1.32 1.32 71 1014.0
20260507031536 8 0 0.0 0.0 0.00 1.32 1.32 71 1014.1
20260507030037 8 0 0.0 0.0 0.00 1.32 1.32 70 1013.8
20260507024542 8 0 0.0 0.0 0.00 1.32 1.32 69 1013.8